Meteo orario Gokak

Oggi, 20 Aprile, Martedi

Tempo Temperatura Precipitazioni Vento Pressione Umidità
00:00 +27°C° 0 mm 5 m/s 703 mm Hg 61%
01:00 +27°C° 0 mm 5 m/s 703 mm Hg 62%
02:00 +26°C° 0 mm 5 m/s 702 mm Hg 62%
03:00 +26°C° 0 mm 4 m/s 702 mm Hg 63%
04:00 +26°C° 0 mm 3 m/s 702 mm Hg 64%
05:00 +25°C° 0 mm 2 m/s 702 mm Hg 67%
06:00 +27°C° 0 mm 3 m/s 703 mm Hg 59%
07:00 +28°C° 0 mm 3 m/s 704 mm Hg 51%
08:00 +29°C° 0 mm 3 m/s 704 mm Hg 43%
09:00 +31°C° 0 mm 3 m/s 704 mm Hg 35%
10:00 +34°C° 0 mm 3 m/s 704 mm Hg 28%
11:00 +37°C° 0 mm 2 m/s 704 mm Hg 21%
12:00 +37°C° 0 mm 2 m/s 704 mm Hg 20%
13:00 +38°C° 0 mm 2 m/s 703 mm Hg 18%
14:00 +39°C° 0 mm 2 m/s 702 mm Hg 17%
15:00 +39°C° 0 mm 2 m/s 702 mm Hg 18%
16:00 +39°C° 0 mm 3 m/s 701 mm Hg 18%
17:00 +40°C° 0 mm 4 m/s 701 mm Hg 19%
18:00 +37°C° 0 mm 5 m/s 702 mm Hg 25%
19:00 +34°C° 0 mm 6 m/s 702 mm Hg 32%
20:00 +32°C° 0 mm 7 m/s 703 mm Hg 39%
21:00 +30°C° 0 mm 6 m/s 703 mm Hg 42%
22:00 +30°C° 0 mm 5 m/s 703 mm Hg 45%
23:00 +29°C° 0 mm 5 m/s 703 mm Hg 48%

Domani, 21 Aprile, Mercoledi

Tempo Temperatura Precipitazioni Vento Pressione Umidità
00:00 +28°C° 0 mm 4 m/s 703 mm Hg 51%
01:00 +27°C° 0 mm 4 m/s 702 mm Hg 55%
02:00 +26°C° 0 mm 4 m/s 702 mm Hg 58%
03:00 +26°C° 0 mm 3 m/s 702 mm Hg 62%
04:00 +25°C° 0 mm 2 m/s 703 mm Hg 66%
05:00 +25°C° 0 mm 1 m/s 703 mm Hg 69%
06:00 +26°C° 0 mm 2 m/s 704 mm Hg 61%
07:00 +27°C° 0 mm 3 m/s 704 mm Hg 53%
08:00 +29°C° 0 mm 3 m/s 705 mm Hg 44%
09:00 +31°C° 0 mm 3 m/s 705 mm Hg 37%
10:00 +34°C° 0 mm 3 m/s 705 mm Hg 29%
11:00 +36°C° 0 mm 2 m/s 705 mm Hg 22%
12:00 +37°C° 0 mm 2 m/s 704 mm Hg 20%
13:00 +38°C° 0 mm 2 m/s 704 mm Hg 18%
14:00 +39°C° 0 mm 2 m/s 703 mm Hg 16%
15:00 +39°C° 0 mm 2 m/s 703 mm Hg 16%
16:00 +39°C° 0 mm 2 m/s 702 mm Hg 15%
17:00 +39°C° 0 mm 2 m/s 702 mm Hg 15%
18:00 +37°C° 0 mm 4 m/s 703 mm Hg 25%
19:00 +34°C° 0 mm 6 m/s 703 mm Hg 35%
20:00 +32°C° 0 mm 7 m/s 703 mm Hg 45%
21:00 +30°C° 0 mm 6 m/s 703 mm Hg 47%
22:00 +29°C° 0 mm 6 m/s 704 mm Hg 50%
23:00 +28°C° 0 mm 5 m/s 704 mm Hg 53%

Dopodomani, 22 Aprile, Giovedi

Tempo Temperatura Precipitazioni Vento Pressione Umidità
00:00 +28°C° 0 mm 4 m/s 703 mm Hg 54%
01:00 +27°C° 0 mm 3 m/s 703 mm Hg 55%
02:00 +27°C° 0 mm 2 m/s 703 mm Hg 57%
03:00 +27°C° 0 mm 2 m/s 703 mm Hg 56%
04:00 +26°C° 0 mm 2 m/s 703 mm Hg 55%
05:00 +26°C° 0 mm 3 m/s 703 mm Hg 55%
06:00 +28°C° 0 mm 3 m/s 704 mm Hg 48%
07:00 +29°C° 0 mm 4 m/s 704 mm Hg 42%
08:00 +32°C° 0 mm 4 m/s 705 mm Hg 35%
09:00 +34°C° 0 mm 4 m/s 705 mm Hg 30%
10:00 +36°C° 0 mm 5 m/s 705 mm Hg 24%
11:00 +39°C° 0 mm 5 m/s 705 mm Hg 18%
12:00 +40°C° 0 mm 5 m/s 704 mm Hg 17%
13:00 +41°C° 0 mm 4 m/s 703 mm Hg 16%
14:00 +40°C° 0 mm 3 m/s 703 mm Hg 14%
15:00 +41°C° 0 mm 4 m/s 702 mm Hg 14%
16:00 +41°C° 0 mm 4 m/s 702 mm Hg 14%
17:00 +41°C° 0 mm 4 m/s 702 mm Hg 14%
18:00 +37°C° 0 mm 5 m/s 702 mm Hg 25%
19:00 +34°C° 0 mm 6 m/s 703 mm Hg 35%
20:00 +30°C° 0 mm 6 m/s 703 mm Hg 45%
21:00 +29°C° 0 mm 6 m/s 703 mm Hg 47%
22:00 +29°C° 0 mm 5 m/s 704 mm Hg 48%
23:00 +28°C° 0 mm 4 m/s 704 mm Hg 49%

23 Aprile, Venerdi

Tempo Temperatura Precipitazioni Vento Pressione Umidità
00:00 +28°C° 0 mm 4 m/s 703 mm Hg 51%
01:00 +27°C° 0 mm 3 m/s 703 mm Hg 53%
02:00 +26°C° 0 mm 3 m/s 702 mm Hg 55%
03:00 +26°C° 0 mm 2 m/s 702 mm Hg 56%
04:00 +26°C° 0 mm 2 m/s 702 mm Hg 57%
05:00 +25°C° 0 mm 1 m/s 703 mm Hg 58%
06:00 +27°C° 0 mm 2 m/s 703 mm Hg 52%
07:00 +28°C° 0 mm 2 m/s 704 mm Hg 47%
08:00 +29°C° 0 mm 2 m/s 705 mm Hg 42%
09:00 +31°C° 0 mm 3 m/s 705 mm Hg 37%
10:00 +34°C° 0 mm 3 m/s 705 mm Hg 31%
11:00 +36°C° 0 mm 3 m/s 705 mm Hg 26%
12:00 +37°C° 0 mm 3 m/s 704 mm Hg 24%
13:00 +38°C° 0 mm 2 m/s 703 mm Hg 22%
14:00 +39°C° 0 mm 1 m/s 702 mm Hg 20%
15:00 +39°C° 0 mm 2 m/s 702 mm Hg 21%
16:00 +40°C° 0 mm 4 m/s 702 mm Hg 22%
17:00 +39°C° 0 mm 5 m/s 702 mm Hg 23%
18:00 +36°C° 0 mm 5 m/s 702 mm Hg 30%
19:00 +34°C° 0 mm 6 m/s 703 mm Hg 37%
20:00 +32°C° 0 mm 7 m/s 703 mm Hg 44%
21:00 +32°C° 0 mm 6 m/s 703 mm Hg 45%
22:00 +30°C° 0 mm 5 m/s 704 mm Hg 46%
23:00 +29°C° 0 mm 4 m/s 704 mm Hg 47%

24 Aprile, Sabato

Tempo Temperatura Precipitazioni Vento Pressione Umidità
00:00 +29°C° 0 mm 4 m/s 703 mm Hg 48%
01:00 +28°C° 0 mm 4 m/s 703 mm Hg 48%
02:00 +28°C° 0 mm 4 m/s 703 mm Hg 49%
03:00 +27°C° 0 mm 3 m/s 703 mm Hg 50%
04:00 +27°C° 0 mm 3 m/s 703 mm Hg 51%
05:00 +26°C° 0 mm 2 m/s 703 mm Hg 53%
06:00 +27°C° 0 mm 2 m/s 704 mm Hg 47%
07:00 +28°C° 0 mm 1 m/s 704 mm Hg 41%
08:00 +29°C° 0 mm 1 m/s 705 mm Hg 35%
09:00 +32°C° 0 mm 2 m/s 705 mm Hg 30%
10:00 +35°C° 0 mm 3 m/s 705 mm Hg 24%
11:00 +38°C° 0 mm 3 m/s 705 mm Hg 19%
12:00 +39°C° 0 mm 3 m/s 704 mm Hg 18%
13:00 +39°C° 0 mm 3 m/s 703 mm Hg 17%
14:00 +40°C° 0 mm 3 m/s 702 mm Hg 16%
15:00 +40°C° 0 mm 2 m/s 702 mm Hg 15%
16:00 +41°C° 0 mm 2 m/s 702 mm Hg 15%
17:00 +41°C° 0 mm 2 m/s 702 mm Hg 14%
18:00 +38°C° 0 mm 4 m/s 702 mm Hg 23%
19:00 +36°C° 0 mm 6 m/s 703 mm Hg 31%
20:00 +33°C° 0 mm 7 m/s 703 mm Hg 40%
21:00 +32°C° 0 mm 6 m/s 703 mm Hg 42%
22:00 +30°C° 0 mm 5 m/s 703 mm Hg 45%
23:00 +29°C° 0 mm 4 m/s 703 mm Hg 48%

25 Aprile, Domenica

Tempo Temperatura Precipitazioni Vento Pressione Umidità
00:00 +28°C° 0 mm 4 m/s 703 mm Hg 48%
01:00 +28°C° 0 mm 3 m/s 703 mm Hg 48%
02:00 +27°C° 0 mm 3 m/s 702 mm Hg 48%
03:00 +27°C° 0 mm 3 m/s 702 mm Hg 49%
04:00 +27°C° 0 mm 2 m/s 703 mm Hg 50%
05:00 +26°C° 0 mm 2 m/s 703 mm Hg 51%
06:00 +28°C° 0 mm 3 m/s 703 mm Hg 46%
07:00 +30°C° 0 mm 3 m/s 704 mm Hg 40%
08:00 +31°C° 0 mm 3 m/s 705 mm Hg 35%
09:00 +35°C° 0 mm 4 m/s 705 mm Hg 29%
10:00 +37°C° 0 mm 4 m/s 705 mm Hg 23%
11:00 +40°C° 0 mm 4 m/s 705 mm Hg 17%
12:00 +41°C° 0 mm 4 m/s 704 mm Hg 16%
13:00 +42°C° 0 mm 3 m/s 703 mm Hg 14%
14:00 +43°C° 0 mm 3 m/s 702 mm Hg 13%
15:00 +43°C° 0 mm 3 m/s 702 mm Hg 13%
16:00 +43°C° 0 mm 3 m/s 701 mm Hg 14%
17:00 +42°C° 0 mm 4 m/s 701 mm Hg 14%
18:00 +39°C° 0 mm 5 m/s 701 mm Hg 29%
19:00 +34°C° 0 mm 7 m/s 702 mm Hg 43%
20:00 +31°C° 0 mm 9 m/s 702 mm Hg 57%
21:00 +29°C° 0 mm 7 m/s 703 mm Hg 59%
22:00 +29°C° 0 mm 6 m/s 703 mm Hg 62%
23:00 +28°C° 0 mm 5 m/s 703 mm Hg 64%
Mostrare altro

Abbiamo bisogno del tuo consenso

Meteoprog e i nostri fornitori di servizi possono memorizzare e accedere a dati personali come cookie, identificatori di dispositivi o altre tecnologie simili sul tuo dispositivo e possono elaborare tali dati per personalizzare i contenuti e gli annunci, nonché fornire funzionalità dei social media e analizzarne il traffico.

  • Archiviare e/o accedere alle informazioni sul tuo dispositivo

    Cookie, identificatori di dispositivi o altre informazioni possono essere memorizzati o resi accessibili sul tuo dispositivo per le finalità sopra indicate.

  • Annunci e contenuti personalizzati, misurazione di annunci e contenuti, approfondimenti sul pubblico e sviluppo di prodotti

    Gli annunci e i contenuti possono essere personalizzati in base a un profilo. È possibile aggiungere più dati per personalizzare meglio annunci e contenuti. È possibile misurare il rendimento degli annunci e dei contenuti. È possibile ricavare informazioni sul pubblico che ha visto gli annunci e i contenuti. Tali dati possono essere utilizzati per sviluppare o migliorare l'esperienza, i sistemi e il software dell'utente.

Cliccando su “Accetto”, acconsenti all'uso di cookie, identificatori di dispositivo, web beacon o altre tecnologie simili. Puoi modificare le impostazioni nel browser del tuo dispositivo.

Per determinati scopi, è possibile fare affidamento su interessi legali, piuttosto che sul consenso. Puoi approfondire questo argomento consultando la nostra Informativa sulla privacy e sui cookie.